sat.trackr.live / text

‹ back to catalog

STARLINK-3877

NORAD 52355 · 2022-045AA

PAYLOAD ACTIVE UNKNOWN

§ Identity

Operator
Country
US
Launch date
2022-04-29
Launch site
AFETR
Launch vehicle
Mass (kg)
RCS (m²)

Purposes: comms

External: N2YO · Heavens-Above · Gunter

§ Orbital elements

Epoch: 2026-09-19T18:00:43.594848Z

Period
93.85 min
Inclination
53.1602°
Eccentricity
0.0001083
Mean motion
15.34430842 rev/d
Perigee alt
461.9 km
Apogee alt
463.4 km
Semi-major
6,840.7 km
B*
1.8568e-4
RAAN
39.3495°
Arg perigee
86.7060°
Mean anomaly
273.4067°
Rev number
24,519

§ Raw data

STARLINK-38771 52355U 22045AA  26262.75050457  .00005908  00000+0  18568-3 0  99962 52355  53.1602  39.3495 0001083  86.7060 273.4067 15.34430842245195

JSON: /api/v1/satellites/52355 · /tle

For live sub-satellite position, see the globe view (requires WebGL).

§ Visibility from observer

Set your observer location to see the next 7 days of passes ≥ 10°. The values pass through the URL so the page stays shareable.

No JS? Fill the form by hand. The geolocation button needs JavaScript.